Regional Weather Roundup
Issued by NWS Northern Indiana

Home | Current Version | Previous Version | Text Only | Print | Product List | Glossary On
Versions: 1 2 3 4 5 6 7 8 9 10 11 12 13 14 15 16 17 18 19 20 21 22 23 24 25 26 27 28 29 30 31 32 33 34 35 36 37 38 39 40 41 42 43 44 45 46 47 48 49 50
000
ASUS43 KIWX 252210
RWRIWX

KIWX WEATHER ROUNDUP
NATIONAL WEATHER SERVICE NORTHERN INDIANA
500 PM EST TUE NOV 25 2014

NOTE: "FAIR" INDICATES FEW OR NO CLOUDS BELOW 12,000 FEET WITH NO
SIGNIFICANT WEATHER AND/OR OBSTRUCTIONS TO VISIBILITY.

* THESE STATIONS ARE NOT UNDER NWS QUALITY CONTROL. THEY ALSO MAY NOT
  REPORT WEATHER SUCH AS PRECIPITATION OR FOG.

INZ001>027-252300-
NORTHERN INDIANA

CITY           SKY/WX    TMP DP  RH WIND       PRES   REMARKS
GARY*          MOCLDY    27  18  69 W8G20     30.16R WCI  18
VALPARAISO     CLOUDY    25  18  74 SW9       30.15R WCI  15
MICHIGAN CITY* CLOUDY    27  18  69 SW7       30.16R WCI  19
LAPORTE*       CLOUDY    28  20  73 SW6       30.15R WCI  21
KNOX*          CLOUDY    26  19  72 W9        30.15R WCI  17
SOUTH BEND     CLOUDY    28  19  69 SW6       30.14R WCI  22
ELKHART*       CLOUDY    28  18  64 W8        30.14R WCI  20
GOSHEN         CLOUDY    27  19  72 W7        30.14R WCI  19
MONTICELLO*    CLOUDY    26  20  79 W6        30.16R WCI  19
LOGANSPORT*    CLOUDY    27  19  74 W5        30.16S WCI  21
ROCHESTER*     CLOUDY    30  23  74 W5        30.15S WCI  25
WARSAW*        CLOUDY    27  19  74 W5        30.14S WCI  21
ANGOLA*        CLOUDY    27  19  74 VRB7      30.13R WCI  19
FORT WAYNE     CLOUDY    27  20  75 W9        30.16R WCI  18
HUNTINGTON*    CLOUDY    26  20  78 W3        30.16R
PERU/GRISSOM   CLOUDY    26  23  90 NW8       30.16R WCI  17
MARION*          N/A     27  22  82 W9        30.17R HAZE    WCI  18

$$
INZ028>050-252300-
CENTRAL INDIANA

CITY           SKY/WX    TMP DP  RH WIND       PRES   REMARKS
LAFAYETTE      CLOUDY    26  20  77 W6        30.16S WCI  19
KOKOMO*        CLOUDY    27  19  74 W10       30.17R WCI  17
MUNCIE*        CLOUDY    29  24  82 W13       30.14S WCI  19
INDIANAPOLIS   CLOUDY    29  23  78 NW8       30.16R WCI  21

$$
MIZ043>046-050>051-056>058-064>065-071>073-077>080-252300-
SOUTHWEST LOWER MICHIGAN

CITY           SKY/WX    TMP DP  RH WIND       PRES   REMARKS
BATTLE CREEK   CLOUDY    30  20  66 W8        30.11R WCI  22
BENTON HARBOR  CLOUDY    28  20  71 W8        30.13R WCI  20
COLDWATER*     CLOUDY    29  23  80 W8        30.12R WCI  21
HILLSDALE*     CLOUDY    28  22  79 W8        30.10R WCI  20
HOLLAND        CLOUDY    31  22  69 W12       30.12R WCI  22
GRAND RAPIDS   FLURRIES  30  23  75 W13       30.10R WCI  20
KALAMAZOO      CLOUDY    29  20  69 W9        30.12R WCI  20
STURGIS*       CLOUDY    27  21  80 CALM      30.12R
THREE RIVERS*  CLOUDY    28  22  79 SW7       30.13R WCI  21

$$
OHZ001>008-015>018-024>025-252300-
NORTHWEST OHIO

CITY           SKY/WX    TMP DP  RH WIND       PRES   REMARKS
WAUSEON*       CLOUDY    28  23  80 W12       30.14R WCI  18
FINDLAY        CLOUDY    31  23  72 W14       30.13R WCI  21
TOLEDO EXPRESS CLOUDY    30  21  69 W10       30.13S WCI  21
TOLEDO METCALF CLOUDY    32  20  61 W12       30.14R WCI  23
LIMA           CLOUDY    30  23  75 W16       30.13R WCI  19

$$
AND FOR LAKE MICHIGAN COASTAL AND OPEN LAKE BUOY OBSERVATIONS

STATION/POSITION TEMP    WIND        PRES    VSBY  WAVE
                 AIR SEA DIR/SP/G                  HT/PER
                 (F)     (DEG/KT/KT) (MB)    (MI)  (FT/S)
CALUMET HARBOR    25     240/  5/ 10 1019.7R
MICHIGAN CITY     26     190/ 11/ 12   N/A
SAINT JOSEPH      31     230/ 12/ 15 1020.7F
SOUTH LAKE BUOY   29 42  250/ 12/ 16 1020.9R         3/ 6

$$
&&



USA.gov is the U.S. government's official web portal to all federal, state and local government web resources and services.